Location: Erlenbrunn
(49.1717°N, 7.6142°E)
Time: 09:00:24
(UTC+00:00)

H-2A R/B - Pass Details

Date: 25 November 2020
Orbit: 499 x 540 km, 97.3° (Epoch: 22 January)

Event Time Altitude Azimuth Distance (km) Brightness Sun altitude
Rises 16:12:28 0° 167° (SSE) 2,643 6.5 -5.8°
Reaches altitude 10° 16:14:32 10° 168° (SSE) 1,766 5.6 -6.1°
Maximum altitude 16:18:22 83° 256° (WSW) 542 2.9 -6.7°
Drops below altitude 10° 16:22:16 10° 346° (NNW) 1,803 5.4 -7.3°
Sets 16:24:24 0° 347° (NNW) 2,704 6.2 -7.6°
